TimeCDT,TemperatureF,Dew PointF,Humidity,Sea Level PressureIn,VisibilityMPH,Wind Direction,Wind SpeedMPH,Gust SpeedMPH,PrecipitationIn,Events,Conditions,WindDirDegrees,DateUTC
12:15 AM,47.3,46.8,98,29.99,3.0,Calm,Calm,-,0.03,Rain,Rain,0,2013-03-31 05:15:00
12:35 AM,47.1,46.8,99,29.98,4.0,NE,3.5,-,0.07,Rain,Rain,40,2013-03-31 05:35:00
12:55 AM,47.3,47.3,100,29.97,4.0,Calm,Calm,-,0.10,Rain,Rain,0,2013-03-31 05:55:00
1:15 AM,47.3,47.3,100,29.96,3.0,Calm,Calm,-,0.03,Rain,Rain,0,2013-03-31 06:15:00
1:35 AM,47.3,47.3,100,29.95,3.0,Calm,Calm,-,0.06,Rain,Light Rain,0,2013-03-31 06:35:00
1:55 AM,47.5,47.3,99,29.94,3.0,Calm,Calm,-,0.09,Rain,Rain,0,2013-03-31 06:55:00
2:15 AM,47.7,47.5,99,29.94,4.0,Calm,Calm,-,0.01,Rain,Light Rain,0,2013-03-31 07:15:00
2:35 AM,47.5,47.3,99,29.93,3.0,Calm,Calm,-,0.03,Rain,Light Rain,0,2013-03-31 07:35:00
2:55 AM,47.5,47.3,99,29.92,3.0,Calm,Calm,-,0.05,Rain,Rain,0,2013-03-31 07:55:00
3:15 AM,47.7,47.5,99,29.92,3.0,Calm,Calm,-,0.02,Rain,Light Rain,0,2013-03-31 08:15:00
3:35 AM,47.7,47.5,99,29.90,3.0,Calm,Calm,-,0.04,Rain,Rain,0,2013-03-31 08:35:00
3:55 AM,47.7,47.5,99,29.90,3.0,Calm,Calm,-,0.06,Rain,Light Rain,0,2013-03-31 08:55:00
4:15 AM,47.7,47.5,99,29.88,3.0,Calm,Calm,-,0.02,Rain,Rain,0,2013-03-31 09:15:00
4:35 AM,47.7,47.7,100,29.88,2.0,Calm,Calm,-,0.04,Rain,Light Rain,0,2013-03-31 09:35:00
4:55 AM,47.7,47.7,100,29.87,2.5,Calm,Calm,-,0.05,Rain,Light Rain,0,2013-03-31 09:55:00
5:15 AM,47.7,47.7,100,29.88,2.0,Calm,Calm,-,0.02,Rain,Heavy Rain,0,2013-03-31 10:15:00
5:35 AM,47.8,47.8,100,29.87,3.0,Calm,Calm,-,0.02,,Drizzle,0,2013-03-31 10:35:00
5:55 AM,48.7,48.2,98,29.87,7.0,South,3.5,-,0.02,,Light Drizzle,170,2013-03-31 10:55:00
6:15 AM,49.6,48.2,95,29.87,7.0,SSE,5.8,-,N/A,Rain,Heavy Rain,160,2013-03-31 11:15:00
6:35 AM,49.5,48.2,95,29.88,10.0,South,8.1,-,N/A,,Drizzle,170,2013-03-31 11:35:00
6:55 AM,49.6,48.2,95,29.88,10.0,SSE,3.5,-,N/A,,Overcast,160,2013-03-31 11:55:00
7:15 AM,50.0,48.6,95,29.88,10.0,SSW,3.5,-,N/A,,Overcast,200,2013-03-31 12:15:00
7:35 AM,50.0,48.6,95,29.88,10.0,Calm,Calm,-,N/A,Rain,Rain,0,2013-03-31 12:35:00
7:55 AM,50.4,48.9,95,29.88,10.0,Calm,Calm,-,N/A,,Overcast,0,2013-03-31 12:55:00
8:15 AM,50.9,49.1,94,29.89,10.0,SSW,3.5,-,N/A,Rain,Rain,200,2013-03-31 13:15:00
8:35 AM,50.5,49.3,95,29.89,5.0,Calm,Calm,-,0.01,Rain,Heavy Rain,0,2013-03-31 13:35:00
8:55 AM,50.9,49.5,95,29.90,10.0,Calm,Calm,-,0.02,,Heavy Drizzle,0,2013-03-31 13:55:00
9:15 AM,50.2,49.8,99,29.90,5.0,Calm,Calm,-,0.02,Rain,Rain,0,2013-03-31 14:15:00
9:35 AM,50.9,50.7,99,29.90,7.0,Calm,Calm,-,0.03,,Light Drizzle,0,2013-03-31 14:35:00
9:55 AM,52.3,50.9,95,29.89,10.0,Calm,Calm,-,0.03,,Overcast,0,2013-03-31 14:55:00
10:15 AM,53.8,50.9,90,29.89,10.0,Calm,Calm,-,N/A,,Overcast,0,2013-03-31 15:15:00
10:35 AM,55.4,49.3,80,29.89,10.0,West,6.9,-,N/A,,Overcast,270,2013-03-31 15:35:00
10:55 AM,56.5,49.3,77,29.88,10.0,Calm,Calm,-,N/A,,Overcast,0,2013-03-31 15:55:00
11:15 AM,57.4,49.6,75,29.89,10.0,West,4.6,-,N/A,,Overcast,260,2013-03-31 16:15:00
11:35 AM,57.4,48.9,73,29.89,10.0,West,9.2,-,N/A,,Overcast,280,2013-03-31 16:35:00
11:55 AM,57.2,49.5,75,29.89,10.0,WSW,5.8,-,N/A,Rain,Light Rain,240,2013-03-31 16:55:00
12:15 PM,57.6,50.0,76,29.90,10.0,West,8.1,-,N/A,,Overcast,280,2013-03-31 17:15:00
12:35 PM,57.2,50.4,78,29.89,10.0,WNW,9.2,-,N/A,,Overcast,290,2013-03-31 17:35:00
12:55 PM,57.9,50.2,75,29.90,10.0,WNW,5.8,-,N/A,,Overcast,300,2013-03-31 17:55:00
1:15 PM,58.5,49.8,73,29.90,10.0,West,10.4,-,N/A,,Overcast,280,2013-03-31 18:15:00
1:35 PM,58.3,49.6,73,29.90,10.0,WNW,8.1,-,N/A,,Overcast,290,2013-03-31 18:35:00
1:55 PM,56.8,50.0,78,29.88,10.0,NNW,5.8,-,N/A,,Overcast,330,2013-03-31 18:55:00
2:15 PM,56.5,49.8,78,29.89,10.0,NNW,5.8,-,N/A,,Overcast,340,2013-03-31 19:15:00
2:35 PM,54.5,49.3,83,29.90,10.0,WNW,6.9,-,N/A,Rain,Light Rain,300,2013-03-31 19:35:00
2:55 PM,53.6,50.4,89,29.89,5.0,WSW,5.8,-,0.03,Rain,Rain,250,2013-03-31 19:55:00
3:15 PM,54.0,50.7,89,29.88,7.0,Calm,Calm,-,0.02,Rain,Light Rain,0,2013-03-31 20:15:00
3:35 PM,55.0,50.7,85,29.87,10.0,Calm,Calm,-,0.02,,Overcast,0,2013-03-31 20:35:00
3:55 PM,54.5,50.5,86,29.87,10.0,ENE,3.5,-,0.02,,Overcast,60,2013-03-31 20:55:00
4:15 PM,54.7,50.9,87,29.86,10.0,ESE,5.8,-,N/A,,Overcast,110,2013-03-31 21:15:00
4:35 PM,55.2,50.5,84,29.86,10.0,Calm,Calm,-,N/A,,Overcast,0,2013-03-31 21:35:00
4:55 PM,55.8,50.2,82,29.85,10.0,Calm,Calm,-,N/A,,Overcast,0,2013-03-31 21:55:00
5:15 PM,55.6,50.0,81,29.85,10.0,Calm,Calm,-,N/A,Rain,Light Rain,0,2013-03-31 22:15:00
5:35 PM,55.4,50.7,84,29.86,10.0,Calm,Calm,-,N/A,,Drizzle,0,2013-03-31 22:35:00
5:55 PM,54.9,50.5,85,29.86,10.0,Calm,Calm,-,N/A,,Drizzle,0,2013-03-31 22:55:00
6:15 PM,55.0,49.1,80,29.87,10.0,WSW,3.5,-,N/A,,Overcast,240,2013-03-31 23:15:00
6:35 PM,54.3,49.5,84,29.87,10.0,West,3.5,-,N/A,Rain,Light Rain,260,2013-03-31 23:35:00
6:55 PM,53.8,49.5,85,29.86,10.0,Calm,Calm,-,N/A,Rain,Light Rain,0,2013-03-31 23:55:00
7:15 PM,53.1,50.2,90,29.87,10.0,WNW,4.6,-,N/A,Rain,Rain,290,2013-04-01 00:15:00
7:35 PM,52.3,50.9,95,29.87,10.0,Calm,Calm,-,N/A,Rain,Rain,0,2013-04-01 00:35:00
8:15 PM,51.1,50.4,97,29.88,10.0,Calm,Calm,-,N/A,,Overcast,0,2013-04-01 01:15:00
8:35 PM,50.9,50.2,97,29.89,10.0,Calm,Calm,-,N/A,,Mostly Cloudy,0,2013-04-01 01:35:00
9:15 PM,48.2,47.8,99,29.90,7.0,NW,3.5,-,N/A,,Clear,310,2013-04-01 02:15:00
9:35 PM,47.1,46.6,98,29.91,5.0,WNW,3.5,-,N/A,,Scattered Clouds,290,2013-04-01 02:35:00
9:55 PM,46.6,45.9,97,29.91,10.0,Calm,Calm,-,N/A,,Scattered Clouds,0,2013-04-01 02:55:00
10:15 PM,44.4,44.4,100,29.92,4.0,Calm,Calm,-,N/A,,Scattered Clouds,0,2013-04-01 03:15:00
10:35 PM,44.1,44.1,100,29.92,2.5,Calm,Calm,-,N/A,,Clear,0,2013-04-01 03:35:00
10:55 PM,43.7,43.7,100,29.91,0.5,Calm,Calm,-,N/A,Fog,Fog,0,2013-04-01 03:55:00
11:15 PM,42.3,42.3,100,29.91,0.5,Calm,Calm,-,N/A,Fog,Fog,0,2013-04-01 04:15:00
11:35 PM,41.5,41.5,100,29.92,0.5,Calm,Calm,-,N/A,Fog,Fog,0,2013-04-01 04:35:00